Tracking 30743 objects as of 20-Jun-2025
HD Live streaming from Space Station
objects crossing your sky now

ONEWEB-0554

Track ONEWEB-0554 now!
10-day predictions
ONEWEB-0554 is classified as:


NORAD ID: 56056
Int'l Code: 2023-043L
Perigee: 1,203.6 km
Apogee: 1,206.2 km
Inclination: 87.9 °
Period: 109.4 minutes
Semi major axis: 7575 km
RCS: Unknown
Launch date: March 26, 2023
Source: United Kingdom (UK)
Launch site: SRIHARIKOTA (SRI)
Your satellite tracking list
Your tracking list is empty




NASA's NSSDC Master Catalog

Two Line Element Set (TLE):
1 56056U 23043L   25170.66375597  .00000137  00000-0  32388-3 0  9995
2 56056  87.9043 301.0593 0001660 104.6393 255.4922 13.16593650111253
Source of the keplerian elements: AFSPC